Torna al catalogo

STARLINK-31577

AttivoComunicazioniVLEO
NORAD 59203·PAYLOAD·🇺🇸 United States

Lanciato Mar 11, 2024 da Vandenberg Space Force Base

Loading…

Prossimi Passaggi (prossime 24 ore)

TLE

AggiornatoSource: CelesTrak SupGP

Epoca: Sep 15, 2026, 02:35 UTC

1 59203C 24046C   26258.10812500  .00069799  00000+0  20623-2 0  2587
2 59203  53.1591 350.8802 0001144  99.8368 333.4392 15.34355515    19

Traccia STARLINK-31577 in tempo reale con AllMySat

Download on the App Store